Temp
31 32 32 32 32 32 31 31 31 27 27 27 27 31 30 29 32 28 29 33 34 35 34 35 36 36 35 36 36 35 36 36 36 36 36 37 37 37
33 32 31 31 31 31 31 30 29 28 26 28 27 28 28 32 31 26 28 30 30 31 32 33 33 33 33 33 32 33 34 34 34 34 34 35 36 36
32 31 30 31 29 29 29 29 28 28 25 26 28 27 26 25 26 26 26 26 25 28 30 31 30 31 30 30 30 31 31 31 31 32 33 34 34 35
30 30 30 32 28 28 28 27 27 26 25 23 25 24 24 24 23 22 25 27 24 26 28 28 28 28 27 28 28 28 28 28 29 31 32 32 33 33
30 29 29 28 27 27 26 25 25 28 25 24 22 23 22 22 20 21 21 20 23 25 25 25 25 25 25 25 26 26 25 26 28 29 30 30 31 31
30 28 28 27 26 26 27 26 26 25 24 22 21 20 19 21 18 16 15 17 16 20 20 22 22 22 22 23 23 23 23 26 27 28 29 29 29 29
29 29 28 28 31 30 28 26 25 23 22 20 18 18 17 17 15 16 14 15 15 15 13 14 14 14 15 18 19 20 24 26 27 27 27 28 28 28
28 28 28 28 29 30 30 31 29 25 22 19 17 16 16 16 16 15 14 11 6 13 11 9 13 10 12 13 19 23 23 25 26 26 26 27 26 26
28 28 29 29 26 27 28 28 27 27 26 22 18 17 16 17 16 14 13 11 9 11 9 5 9 7 11 14 18 22 22 23 24 25 25 25 25 25
28 27 26 25 26 25 25 23 23 22 22 23 21 19 19 19 18 15 11 6 4 5 7 -4 4 5 10 10 17 19 21 23 23 23 23 24 23 23
28 27 26 25 28 26 22 20 19 19 23 23 21 21 21 20 18 12 -4 -9 -2 1 7 4 5 4 6 7 10 17 19 19 20 21 21 22 21 21
26 26 28 27 27 28 23 17 15 16 15 12 11 11 12 11 15 10 6 -11 -11 -11 1 -1 -0 2 -3 -1 5 8 9 14 17 18 18 19 19 14
23 22 22 27 28 28 26 16 18 13 10 7 6 5 6 6 7 8 7 4 -8 -4 5 6 -4 1 -1 -2 3 6 7 8 8 9 14 16 16 17
20 21 20 26 26 25 21 23 22 13 2 -0 -0 2 2 3 4 4 4 4 4 3 6 4 -1 -0 -2 -3 -4 3 5 6 6 6 6 11 14 14
21 21 22 22 20 16 18 19 10 1 -2 -8 -2 1 2 3 3 0 -2 0 0 2 4 3 1 1 -0 -3 -4 -2 1 2 4 3 5 4 4 7
17 12 17 16 15 14 8 8 6 1 -0 -1 -1 -0 -1 -9 -4 -1 -3 -2 -4 -3 2 3 2 1 -2 -1 -1 -3 -0 -4 1 1 3 3 7 8
-1 -3 -2 -1 0 1 1 -1 -3 -3 -4 -5 -4 -4 -4 -3 -4 -2 -4 -5 -8 -7 -6 -2 0 1 0 -1 -5 -3 -3 -3 -1 0 2 1 4 4
-5 -9 -6 -3 -2 -1 -2 -2 -1 -6 -5 -6 -8 -8 -6 -5 -6 -5 -5 -8 -10 -8 -8 -5 -5 -6 -6 -5 4 -3 -1 -1 1 1 0 -3 -2 5
-12 -13 -11 -6 -3 -2 -4 -4 -3 -3 -9 -9 -7 -6 -6 -6 -9 -9 -8 -9 -10 -9 -8 -6 -9 -10 -14 -14 -4 8 -1 -1 -3 -3 -0 -0 -0 3
-16 -15 -10 -7 -5 -5 -4 -4 -4 -5 -9 -7 -7 -7 -8 -9 -11 -11 -10 -11 -11 -10 -10 -9 -8 -8 -12 -12 -10 -5 5 -1 -3 -2 -1 2 5 12
-14 -11 -10 -8 -6 -5 -5 -6 -7 -7 -7 -8 -8 -8 -9 -11 -13 -12 -11 -11 -11 -12 -13 -11 -6 0 -3 -5 -11 -10 -4 7 6 1 1 -0 0 3
-9 -9 -6 -8 -7 -7 -7 -7 -10 -10 -9 -11 -11 -10 -10 -11 -12 -12 -12 -13 -12 -11 -11 -8 -7 -7 -8 -10 -12 -10 -8 -4 2 6 10 9 3 -0
-8 -8 -6 -6 -6 -6 -7 -10 -11 -11 -10 -11 -10 -10 -10 -12 -11 -11 -11 -13 -12 -13 -12 -12 -11 -9 -10 -10 -11 -11 -10 -8 -5 -5 0 11 13 15
MSLP
1027.63 1028.18 1028.34 1028.53 1028.23 1028.53 1028.61 1028.89 1028.97 1029.51 1030.03 1030.39 1030.68 1030.47 1030.34 1030.39 1030.31 1030.21 1030.03 1029.67 1029.27 1028.98 1028.65 1028.07 1027.31 1026.98 1026.57 1025.89 1025.80 1025.37 1024.74 1024.02 1023.71 1023.08 1022.59 1022.24 1021.61 1020.75
1028.01 1028.23 1028.81 1028.89 1029.03 1029.13 1029.45 1029.51 1029.49 1029.88 1030.34 1030.48 1030.66 1030.61 1030.58 1030.31 1030.40 1030.32 1030.01 1029.68 1029.46 1029.09 1028.48 1027.87 1027.43 1027.14 1026.51 1026.36 1026.06 1025.43 1024.78 1024.24 1023.90 1023.50 1022.64 1022.00 1021.28 1020.51
1028.64 1028.68 1029.13 1029.40 1029.65 1029.90 1030.00 1030.22 1030.37 1030.37 1030.57 1030.64 1030.67 1030.66 1030.78 1030.75 1030.49 1030.37 1030.05 1029.67 1029.44 1029.00 1028.40 1027.86 1027.55 1027.24 1026.90 1026.59 1025.93 1025.44 1024.95 1024.32 1023.90 1023.28 1022.24 1021.73 1021.05 1020.26
1028.88 1029.16 1029.54 1029.91 1030.14 1030.43 1030.67 1030.77 1030.97 1031.01 1031.02 1030.95 1030.73 1030.73 1030.72 1030.70 1030.62 1030.39 1030.00 1029.70 1029.47 1028.88 1028.32 1027.99 1027.67 1027.38 1026.97 1026.43 1025.92 1025.46 1025.05 1024.72 1023.93 1022.92 1021.94 1021.40 1020.66 1019.77
1029.43 1029.76 1030.17 1030.26 1030.69 1031.04 1031.17 1031.31 1031.45 1031.39 1031.25 1031.14 1030.92 1030.83 1030.75 1030.67 1030.54 1030.25 1029.99 1029.54 1029.36 1028.87 1028.52 1028.02 1027.63 1027.31 1026.71 1026.44 1025.75 1025.50 1025.04 1024.42 1023.52 1022.48 1021.54 1020.86 1020.09 1019.28
1029.79 1030.24 1030.67 1030.81 1031.08 1031.27 1031.19 1031.36 1031.45 1031.30 1031.22 1031.30 1031.17 1030.99 1031.05 1030.70 1030.58 1030.26 1029.59 1029.51 1029.19 1029.00 1028.65 1028.12 1027.78 1027.36 1026.99 1026.44 1025.73 1025.37 1024.81 1023.84 1022.74 1021.83 1021.02 1020.26 1019.39 1018.61
1030.18 1030.66 1031.00 1031.07 1031.00 1031.17 1030.98 1031.14 1031.29 1031.35 1031.38 1031.35 1031.16 1031.06 1030.99 1030.57 1030.39 1030.16 1029.78 1029.26 1028.79 1028.15 1028.16 1027.98 1027.52 1027.00 1026.60 1026.24 1025.67 1024.95 1023.94 1022.94 1022.06 1021.23 1020.45 1019.60 1018.70 1017.92
1030.49 1030.86 1031.07 1031.17 1031.09 1031.12 1031.01 1031.08 1031.19 1031.10 1031.29 1031.30 1031.26 1031.16 1030.85 1030.61 1030.33 1030.14 1029.60 1029.30 1028.50 1028.12 1027.85 1027.02 1026.83 1026.39 1026.00 1025.69 1024.83 1023.72 1023.05 1022.33 1021.51 1020.71 1019.78 1018.86 1017.99 1017.10
1030.63 1030.71 1030.94 1031.33 1031.43 1031.43 1031.36 1031.34 1031.49 1031.27 1031.13 1031.21 1031.21 1031.25 1030.82 1030.69 1030.37 1029.79 1029.63 1029.60 1029.34 1028.72 1028.29 1026.07 1025.86 1025.58 1025.27 1024.72 1023.93 1022.89 1022.34 1021.68 1020.83 1020.04 1019.20 1018.25 1017.25 1016.17
1030.72 1030.89 1031.23 1031.39 1031.39 1031.38 1031.62 1031.48 1031.50 1031.59 1031.44 1030.95 1031.29 1031.21 1030.83 1030.52 1030.07 1029.61 1029.66 1029.95 1029.58 1028.93 1028.48 1026.81 1025.42 1024.74 1023.99 1023.81 1023.17 1022.23 1021.74 1021.00 1020.31 1019.49 1018.60 1017.50 1016.47 1015.41
1030.85 1031.23 1031.34 1031.60 1031.29 1031.48 1031.41 1031.35 1031.73 1031.41 1031.10 1031.14 1031.33 1031.26 1030.92 1030.44 1030.00 1029.59 1030.27 1030.38 1029.54 1028.46 1027.97 1027.43 1025.78 1024.55 1023.28 1022.50 1022.17 1021.69 1021.13 1020.50 1019.55 1018.76 1017.77 1016.78 1015.76 1014.61
1031.27 1031.41 1031.35 1031.55 1031.20 1031.06 1031.11 1031.86 1031.62 1031.56 1031.80 1032.07 1031.88 1031.50 1031.05 1030.77 1030.28 1030.33 1030.19 1030.24 1030.33 1028.98 1028.06 1027.73 1026.61 1026.33 1023.72 1021.85 1021.89 1021.59 1020.66 1019.69 1018.52 1017.74 1017.07 1016.05 1015.08 1014.36
1031.60 1031.78 1031.87 1031.40 1031.31 1030.89 1030.87 1031.72 1031.05 1032.06 1032.10 1032.03 1031.59 1031.17 1031.00 1030.69 1030.47 1030.20 1030.05 1029.97 1029.82 1029.35 1028.16 1027.96 1026.74 1026.55 1026.28 1023.53 1021.36 1020.78 1020.18 1018.86 1017.77 1016.98 1016.29 1015.28 1014.45 1013.47
1031.91 1032.14 1032.27 1031.60 1031.33 1031.18 1031.37 1030.94 1030.66 1031.59 1032.19 1031.84 1031.44 1030.91 1030.63 1030.24 1029.97 1029.85 1029.62 1029.37 1029.15 1028.61 1027.95 1027.98 1027.13 1026.49 1025.52 1023.94 1022.22 1019.67 1018.71 1018.37 1017.47 1016.26 1015.46 1014.25 1013.17 1012.64
1032.16 1032.13 1032.01 1032.24 1032.01 1031.86 1031.52 1031.22 1031.87 1032.25 1032.09 1031.96 1031.33 1030.70 1030.23 1029.83 1029.53 1029.34 1029.11 1028.79 1028.58 1028.01 1027.30 1026.89 1026.52 1025.66 1025.22 1023.96 1022.33 1020.01 1018.53 1017.10 1016.45 1015.61 1014.54 1013.76 1012.27 1011.13
1032.61 1033.13 1032.48 1032.19 1032.11 1032.04 1032.55 1032.14 1032.05 1032.09 1031.95 1031.61 1030.95 1030.39 1030.03 1029.98 1029.54 1029.09 1028.84 1028.54 1028.07 1027.15 1026.55 1025.93 1025.47 1024.97 1023.94 1023.20 1022.40 1019.42 1018.32 1017.91 1015.69 1014.81 1013.80 1012.66 1010.89 1009.95
1033.79 1033.83 1033.14 1033.10 1033.23 1032.82 1032.43 1032.20 1032.26 1032.00 1031.76 1031.18 1030.65 1030.29 1029.94 1029.48 1028.98 1028.60 1028.41 1028.10 1027.84 1026.69 1025.91 1025.02 1024.37 1023.92 1023.12 1022.39 1021.17 1019.05 1017.45 1016.61 1015.46 1013.82 1012.72 1011.07 1009.74 1008.28
1033.69 1034.36 1034.19 1033.70 1033.29 1033.00 1032.73 1032.34 1031.92 1031.58 1031.25 1030.83 1030.41 1030.02 1029.53 1029.01 1028.52 1028.10 1027.97 1027.71 1027.10 1026.26 1025.35 1024.14 1023.58 1022.80 1021.63 1020.28 1019.38 1017.56 1016.29 1015.43 1014.18 1013.00 1012.06 1010.32 1007.96 1006.10
1034.32 1034.76 1034.37 1033.91 1033.45 1033.02 1032.59 1032.19 1031.58 1031.09 1030.91 1030.52 1030.09 1029.43 1028.88 1028.47 1028.26 1027.79 1027.38 1026.93 1026.13 1025.42 1024.56 1023.69 1023.31 1022.86 1021.49 1019.06 1017.30 1017.01 1015.80 1014.38 1013.61 1012.27 1010.84 1009.24 1006.74 1004.31
1034.35 1034.74 1034.42 1033.80 1033.23 1032.62 1031.93 1031.41 1030.89 1030.60 1030.36 1029.92 1029.47 1028.91 1028.40 1028.12 1027.76 1027.30 1026.77 1026.07 1025.27 1024.42 1023.69 1023.16 1022.59 1021.96 1021.25 1019.43 1017.28 1015.22 1015.80 1013.93 1012.94 1010.93 1008.99 1007.43 1005.03 1003.09
1034.58 1034.36 1033.79 1033.20 1032.57 1031.95 1031.33 1030.85 1030.55 1030.18 1029.78 1029.40 1028.84 1028.28 1027.77 1027.56 1027.10 1026.58 1025.92 1025.25 1024.61 1023.89 1022.82 1022.06 1021.17 1020.52 1019.76 1018.94 1017.33 1014.92 1013.25 1012.74 1011.84 1010.38 1008.15 1006.33 1003.82 1000.87
1034.44 1033.90 1032.99 1032.39 1031.92 1031.45 1030.87 1030.37 1029.99 1029.60 1029.18 1028.68 1028.04 1027.50 1027.05 1026.86 1026.47 1025.89 1025.27 1024.50 1023.85 1023.00 1021.94 1021.02 1020.25 1019.72 1019.01 1018.17 1016.42 1014.55 1012.56 1010.69 1009.66 1008.51 1007.18 1005.80 1003.41 1000.59
1033.76 1033.13 1032.41 1031.81 1031.26 1030.78 1030.21 1029.78 1029.35 1028.84 1028.33 1027.84 1027.27 1026.72 1026.26 1026.00 1025.60 1025.07 1024.35 1023.77 1022.98 1022.06 1021.26 1020.12 1019.50 1018.96 1017.93 1016.99 1015.83 1014.03 1012.17 1010.38 1008.19 1006.32 1003.73 1003.35 1001.82 999.96
Wind_Speed
5 5 5 4 6 5 5 3 1 3 2 0 1 3 3 3 5 4 4 10 14 17 20 19 20 21 21 22 24 24 24 24 25 26 27 28 29 30
5 8 6 4 5 4 4 4 4 2 1 1 0 2 3 3 5 4 4 7 10 17 17 18 19 19 19 21 22 22 23 24 25 25 27 29 31 31
6 7 7 5 4 4 4 4 3 2 1 1 1 2 1 3 4 4 5 5 5 16 17 19 18 17 19 21 21 21 22 23 22 26 28 29 30 31
7 6 5 5 6 6 4 4 3 3 1 3 2 1 1 2 2 4 6 7 8 13 18 17 16 17 21 21 20 20 21 21 23 27 28 29 31 32
6 6 4 6 5 4 4 3 2 2 1 2 2 1 2 2 3 4 7 6 8 15 17 14 13 20 20 20 19 21 21 21 26 28 29 31 32 33
6 6 5 5 5 3 3 2 2 2 2 1 2 2 3 2 3 7 7 6 8 9 10 10 17 17 19 19 20 20 20 23 27 29 30 32 34 36
6 6 4 4 5 4 2 2 2 1 1 2 3 3 5 5 7 6 8 8 7 6 2 7 7 7 8 13 16 18 22 26 28 29 31 34 36 37
5 4 4 4 3 5 6 8 3 3 4 4 3 5 7 6 6 7 8 8 7 1 8 12 8 6 7 6 18 23 24 26 28 30 33 35 36 37
4 4 4 3 2 2 5 5 5 7 8 6 6 6 7 7 8 9 8 7 8 8 10 11 2 6 6 8 21 26 24 25 29 32 33 34 35 37
4 4 4 3 3 3 1 1 2 3 4 4 4 6 9 10 8 8 6 5 5 5 3 7 2 9 7 8 22 22 22 28 31 31 32 34 35 36
4 3 4 2 4 2 1 1 4 6 6 7 11 14 16 17 14 5 3 4 7 3 3 4 4 13 9 9 7 18 26 29 31 31 32 33 35 35
4 5 4 2 8 9 3 1 6 4 3 4 5 7 9 9 13 5 3 1 2 5 3 3 5 5 10 3 2 11 10 24 32 30 31 33 33 15
3 2 3 8 8 10 7 2 7 5 5 3 4 4 4 5 4 4 4 5 3 6 9 9 4 9 7 12 9 12 12 13 14 18 26 31 31 27
3 1 3 9 10 11 7 13 12 7 2 3 3 4 5 5 4 4 7 7 7 12 12 10 8 10 11 14 16 13 12 13 13 14 14 22 30 31
2 3 7 7 9 6 10 13 6 2 3 2 4 5 4 6 7 6 5 8 9 11 11 12 11 12 11 12 15 17 19 13 14 13 12 15 16 14
2 2 4 6 9 7 4 5 3 2 3 5 5 5 5 2 5 5 6 7 7 9 11 13 13 12 12 12 12 20 14 12 15 15 14 16 16 14
1 2 3 3 3 3 4 4 3 3 3 3 5 6 6 6 6 6 6 7 8 9 9 9 10 11 12 15 14 17 15 14 15 16 17 17 16 17
4 2 2 2 3 5 6 7 6 5 4 4 4 5 7 7 8 7 7 7 9 9 10 10 9 9 9 9 21 15 13 13 14 16 17 18 18 17
2 2 3 3 5 6 6 6 7 6 3 4 6 7 7 7 7 7 8 8 9 9 9 9 8 7 12 16 6 17 12 14 15 16 15 16 19 19
0 2 4 5 6 7 7 6 7 6 4 6 7 8 7 8 8 8 8 9 10 10 10 8 8 8 10 13 18 16 23 15 13 16 18 17 22 36
3 4 5 6 7 7 7 7 7 7 7 8 8 8 8 6 8 8 9 11 12 10 11 10 10 15 12 12 12 15 13 26 24 17 19 18 19 21
5 6 7 6 7 7 8 7 7 7 7 6 7 8 7 6 8 9 9 10 9 10 12 11 11 9 10 11 15 20 16 15 22 31 31 29 17 21
6 6 7 7 7 7 7 6 7 8 8 7 7 8 7 7 7 8 9 9 10 11 11 12 10 8 11 12 15 15 22 20 16 17 18 27 32 35
Wind_Direction
97 85 76 54 53 47 46 37 111 163 191 128 146 354 7 52 43 14 338 332 344 342 337 335 334 336 334 342 339 334 330 333 329 331 331 322 323 320
92 92 80 67 64 54 57 45 41 71 134 91 164 349 43 47 7 336 322 347 336 337 338 335 337 338 341 338 332 329 330 329 330 327 321 321 320 318
84 91 85 73 70 63 53 46 47 45 65 312 321 4 84 0 337 334 337 308 341 332 335 336 337 337 338 330 329 326 328 327 323 316 320 319 316 316
100 92 94 96 70 56 50 53 42 51 15 284 284 305 296 322 299 298 333 335 329 328 330 328 334 339 331 328 324 323 325 318 314 318 317 316 315 314
87 89 95 85 74 68 57 44 29 8 352 285 286 301 273 286 295 314 319 323 319 322 324 320 329 329 324 321 319 318 319 310 313 315 317 316 314 314
96 87 78 84 89 82 59 11 347 313 315 306 285 290 278 292 302 317 317 314 313 310 310 306 324 314 313 311 315 311 306 303 316 314 317 316 313 312
88 94 92 107 86 55 50 339 8 12 320 317 314 306 304 318 316 318 304 309 306 290 344 310 306 293 282 295 300 302 301 312 311 315 314 313 312 311
111 104 105 101 53 23 5 345 337 335 5 338 315 305 309 307 304 307 311 323 326 54 332 302 284 266 279 275 291 307 308 309 311 311 312 313 312 309
114 120 111 75 21 4 2 43 34 4 352 342 324 311 315 321 316 318 322 311 297 308 313 293 201 269 270 285 299 304 305 306 309 312 312 312 310 309
101 99 99 61 355 92 62 8 33 346 318 321 319 332 327 321 326 319 337 307 294 274 278 278 346 297 297 290 287 293 299 308 310 310 310 312 313 311
87 87 83 71 342 80 153 345 312 297 314 342 347 333 328 328 318 346 332 10 314 291 273 269 333 314 301 284 261 281 305 306 307 308 311 315 314 312
62 58 45 60 356 333 45 40 302 312 30 344 314 318 325 313 328 334 339 292 276 320 278 301 317 320 315 244 315 294 289 299 305 308 311 311 312 311
89 71 8 332 330 336 12 291 294 83 339 313 305 299 292 292 302 310 302 294 254 250 277 302 311 300 269 301 300 294 298 294 301 303 302 302 305 304
70 33 300 332 334 339 350 323 345 357 303 307 299 303 300 308 306 292 288 283 270 270 285 281 274 281 285 290 292 297 296 295 293 296 296 293 298 299
91 354 336 337 344 355 335 332 11 325 288 307 298 293 291 300 301 298 281 272 269 269 275 272 266 277 274 276 285 289 295 303 295 286 291 295 292 294
44 319 340 359 353 347 321 325 304 280 278 281 285 290 297 301 284 284 292 294 284 274 263 266 266 267 272 268 276 283 286 285 294 288 290 286 289 285
151 3 6 359 322 300 315 303 282 283 285 266 290 294 291 287 280 282 273 279 264 283 283 273 267 260 263 273 274 268 282 281 278 284 293 288 289 288
45 18 302 279 314 310 301 295 291 276 270 264 274 275 283 286 285 281 271 268 273 279 282 286 296 299 284 251 242 267 271 279 286 291 293 290 287 287
63 280 290 301 296 292 284 277 284 283 272 269 278 276 278 279 282 279 282 278 276 277 274 286 289 290 298 295 272 268 285 293 293 288 285 285 288 292
276 265 291 286 281 276 281 281 285 289 276 277 276 275 274 274 280 280 280 276 278 282 282 280 276 272 266 283 294 292 280 283 288 289 294 289 285 289
286 286 250 263 276 279 280 279 277 280 281 282 275 273 277 274 272 275 272 270 276 281 284 284 278 283 283 288 282 281 287 290 290 289 297 295 297 301
271 269 283 275 276 278 284 281 283 278 276 265 266 269 273 268 275 278 277 282 280 279 281 286 290 286 278 272 280 289 292 296 296 293 290 289 297 303
273 274 286 280 279 278 276 273 274 271 269 268 270 274 277 277 274 274 278 276 279 281 285 289 290 285 278 279 282 288 291 297 304 306 298 304 305 305